Location: Aufkirchen
(47.9603°N, 11.3653°E)
Time: 06:44:54
(UTC+01:00)

Transit 4A - Pass Details

Date: 30 November 2020
Orbit: 864 x 981 km, 66.8° (Epoch: 16 January)

Event Time Altitude Azimuth Distance (km) Brightness Sun altitude
Rises 10:48:54 0° 276° (W) 3,669 10.8 18.3°
Reaches altitude 10° 10:52:21 10° 295° (WNW) 2,733 10.0 18.5°
Maximum altitude 10:56:42 19° 338° (NNW) 2,173 9.4 18.7°
Drops below altitude 10° 11:01:05 10° 21° (NNE) 2,739 10.0 18.9°
Sets 11:04:33 0° 39° (NE) 3,681 10.7 19.1°
